This demonstration page uses our WeatherBlox Daily Observations layout. Learn more.

Left ArrowRight Arrow

Hourly Observations for June 30, 2019

Temp ( °F °C ) Dew Point ( °F °C ) Humidity (%) Winds ( mph kmh ) Pressure ( in mb ) Visibility ( mi km ) Precip ( " mm )
12:53 am 00:53 Clear 55 12.8 45 7.2 69 69 VRB 3 6 30.08 1019 10 16 0.00 0.00
1:53 am 01:53 Clear 49 9.4 46 7.8 90 90 S 3 6 30.09 1019 10 16 0.00 0.00
2:53 am 02:53 Clear 51 10.6 47 8.3 86 86 Calm 30.09 1019 10 16 0.00 0.00
3:53 am 03:53 Mostly Clear 50 10 47 8.3 89 89 WNW 5 7 30.09 1019 10 16 0.00 0.00
4:53 am 04:53 Mostly Clear 49 9.4 47 8.3 93 93 W 5 7 30.10 1019 10 16 0.00 0.00
5:53 am 05:53 Sunny 49 9.4 46 7.8 90 90 WNW 3 6 30.10 1019 10 16 0.00 0.00
6:53 am 06:53 Sunny 53 11.7 48 8.9 83 83 WSW 3 6 30.11 1020 10 16 0.00 0.00
7:53 am 07:53 Sunny 59 15 46 7.8 62 62 W 3 6 30.12 1020 10 16 0.00 0.00
8:53 am 08:53 Sunny 63 17.2 47 8.3 56 56 Calm 30.12 1020 10 16 0.00 0.00
9:53 am 09:53 Sunny 67 19.4 48 8.9 51 51 VRB 3 6 30.12 1020 10 16 0.00 0.00
10:53 am 10:53 Sunny 71 21.7 47 8.3 42 42 SSE 3 6 30.11 1020 10 16 0.00 0.00
11:53 am 11:53 Sunny 75 23.9 40 4.4 28 28 VRB 3 6 30.11 1020 10 16 0.00 0.00
12:53 pm 12:53 Sunny 75 23.9 39 3.9 27 27 VRB 3 6 30.10 1019 10 16 0.00 0.00
1:53 pm 13:53 Sunny 77 25 42 5.6 29 29 ENE 5 7 30.09 1019 10 16 0.00 0.00
2:53 pm 14:53 Sunny 78 25.6 43 6.1 29 29 E 6 9 30.07 1018 10 16 0.00 0.00
3:53 pm 15:53 Sunny 80 26.7 42 5.6 26 26 N 6 9 30.06 1018 10 16 0.00 0.00
4:53 pm 16:53 Sunny 79 26.1 43 6.1 28 28 ENE 9 15 30.05 1018 10 16 0.00 0.00
5:53 pm 17:53 Sunny 79 26.1 43 6.1 28 28 E 5 7 30.03 1017 10 16 0.00 0.00
6:53 pm 18:53 Sunny 78 25.6 44 6.7 30 30 E 6 9 30.02 1017 10 16 0.00 0.00
7:53 pm 19:53 Sunny 73 22.8 51 10.6 46 46 E 5 7 30.02 1017 10 16 0.00 0.00
8:53 pm 20:53 Sunny 69 20.6 51 10.6 53 53 SE 8 13 30.04 1017 10 16 0.00 0.00
9:53 pm 21:53 Clear 65 18.3 51 10.6 61 61 Calm 30.05 1018 10 16 0.00 0.00
10:53 pm 22:53 Partly Cloudy 62 16.7 51 10.6 67 67 NNW 7 11 30.05 1018 10 16 0.00 0.00
11:53 pm 23:53 Clear 62 16.7 50 10 65 65 Calm 30.04 1017 10 16 0.00 0.00

Powered by AerisWeather